Location: Sobotiste
(48.7170°N, 17.4000°E)
Time: 00:18:55
(UTC+01:00)

STARS - Visible Passes

Search period start: 13 March 2026 00:00
Search period end: 23 March 2026 00:00
Orbit: 575 x 589 km, 98.1° (Epoch: 12 March)

Date Brightness Start Highest point End Pass type
(mag) Time Alt. Az. Time Alt. Az. Time Alt. Az.
13 Mar ? 03:04:10 10° N 03:04:19 11° NNW 03:04:19 11° NNW visible
14 Mar ? 03:09:56 10° NNW 03:10:09 11° NNW 03:10:09 11° NNW visible
15 Mar ? 03:15:44 10° NNW 03:15:58 11° NNW 03:15:58 11° NNW visible
16 Mar ? 01:45:13 10° NNE 01:45:24 11° NNE 01:45:24 11° NNE visible
16 Mar ? 03:21:32 10° NNW 03:21:47 11° NNW 03:21:47 11° NNW visible
17 Mar ? 01:50:48 10° NNE 01:51:12 12° NNE 01:51:12 12° NNE visible
17 Mar ? 03:27:21 10° NNW 03:27:35 11° NNW 03:27:35 11° NNW visible
18 Mar ? 01:56:23 10° NNE 01:56:59 14° NNE 01:56:59 14° NNE visible
18 Mar ? 03:33:12 10° NNW 03:33:22 10° NNW 03:33:22 10° NNW visible
19 Mar ? 02:01:59 10° NNE 02:02:46 15° NNE 02:02:46 15° NNE visible
19 Mar ? 03:39:07 10° NNW 03:39:09 10° NNW 03:39:09 10° NNW visible
20 Mar ? 02:07:34 10° NNE 02:08:32 17° NNE 02:08:32 17° NNE visible
21 Mar ? 02:13:09 10° N 02:14:17 18° N 02:14:17 18° N visible
22 Mar ? 02:18:43 10° N 02:20:01 20° N 02:20:01 20° N visible
